Погода Березово

Погода Березово : погода сейчас, прогноз погоды и архив. Всё, что Вы хотите узнать о погоде Березово!

Поиск расширенной информации на нашем сайте:

Другие новости

Новости СМИ2

Главная страница сайта

Новости сайта

03.07.2017

Напоминаем, что на нашем специализированном сайте Метеоцентр.Азия вы можете получить высокодетализированные автоматические прогнозы погоды по пунктам России, СНГ и мира в авиационном формате (включающие направление и скорость ветра, видимость, явления погоды, количество и форму облачности, нижнюю и верхнюю границу облачности).


Погода Березово - сегодня

Время (UTC), дата Ветер
(°,м/с) 
Видим.   Явления Облачность Т
(°С)
Тd
(°С)
f(%) Тe
(°С)
Pmin
(гПа)
dP
(гПа)
Po
(мм)
O2
(г/м3)
Тmin Tmax R s Состояние
почвы
00 17.05.18 030 (СВ) 20000 м    10/0 средняя 
[Ac und]
-5.5 -7.3 87 -5  1016  -1.5  759  313           
03 17.05.18 040 (СВ) 20000 м    9/0 средняя 
[Ac und]
-2.5 -8.1 65 -4  1014.7  -1.2  758  309  -7.1      32  равномерный
сухой снег
100% 
06 17.05.18 080 (В) 20000 м    10/3 660 м верхняя 
[Sc|Cs]
-1.2 -5.5 73 -3  1014.2  -0.5  758  307           
15 17.05.18 040 (СВ) 20000 м  {ливн. осадки}  9/3 1200 м средняя 
[Sc|Ac und]
-0.4 -6.3 64 -2  1014.8  0.3  758  307    -0.4  0.0     
18 17.05.18 360 (С) 20000 м  {ливн. осадки}  10/0 средняя 
[Ac As]
-2.1 -6.4 72 -4  1015.7  0.9  759  309           
21 17.05.18 010 (С) 20000 м    ясно 
-4 -7 80 -7  1017.7  1.9  760  312           
00 18.05.18 350 (С) 20000 м    ясно 
-5.8 -8 84 -9  1020.2  2.5  762  315           
03 18.05.18 030 (СВ) 20000 м    ясно 
-4.3 -9.4 68 -7  1021.8  1.6  763  313  -5.8      31  равномерный
мокрый или
старый снег
100% 
06 18.05.18 060 (СВ) 20000 м    9/0 средняя 
[Ac und]
-1.3 -8.4 58 -2  1022.8  764  310           
09 18.05.18 080 (В) 20000 м    9/4 1230 м средняя 
[Sc|Ac und]
-0.3 -7.7 57 -1  1023.6  0.8  765  309           
12 18.05.18 060 (СВ) 20000 м    9/4 960 м средняя 
[Sc|Ac und]
+0.4 -6.3 61 -1  1024.3  0.7  765  309           
18 18.05.18 200 (Ю) 20000 м    ясно 
-3.5 -6 83 -5  1024.4  0.3  765  313           
21 18.05.18 250 (З) 20000 м    ясно 
-6.4 -6.8 97 -8  1023.9  -0.5  765  316           
00 19.05.18 170 (Ю) 20000 м    ясно 
-4.9 -5.5 96 -4  1023.4  -0.5  764  314           
03 19.05.18 150 (ЮВ) 20000 м    3/0 верхняя 
[Ci fib]
+1 -6.9 56 +2  1021.9  -1.5  763  307  -6.4      31  равномерный
мокрый или
старый снег
100% 
06 19.05.18 120 (ЮВ) 20000 м    10/0 верхняя 
[Ci fib]
+3.6 -3.8 58 +2  1019.4  -2.4  761  303           
09 19.05.18 140 (ЮВ) 20000 м    10/0 верхняя 
[Ci fib]
+6.9 -3.1 49 +6  1016.9  -2.5  760  299           
12 19.05.18 140 (ЮВ) 10 км  слаб. дождь  10/0 средняя 
[As op]
+8.4 -3.3 43 +8  1014.3  -2.5  758  297           
15 19.05.18 140 (ЮВ) 10 км  слаб. дождь  10/0 средняя 
[As op]
+5.4 -1 63 +5  1011.7  -2.7  756  299    +10.3  0.0     
21 19.05.18 160 (Ю) 10 км  слаб. дождь  10/0 средняя 
[As op]
+3.4 +1.6 88 +3  1005.8  -2.8  751  299           
03 20.05.18 190 (Ю) 4000 м  слаб. дождь  10/9 180 м средняя 
[Sc|As op]
+3.8 +3.1 95 +3  1001.8  -1.5  748  297  +2.4      21  равномерный
мокрый или
старый снег
100% 
06 20.05.18 040 (СВ) 20  8000 м    5/3 <0100 м средняя 
[Cu hum|As trans]
    20          92     
15 20.05.18 350 (С) 4000 м  слаб. ливневой дождь  10/8 270 м кучево-дожд., средняя 
[Cb cap|Ac As]
+3 +1.7 91 +1  1005.5  3.2  751  299    +6     
03 21.05.18 350 (С) 20000 м    1/1 540 м 
[Cu hum]
+2 -3 69 -1  1016  2.6  759  304  +0.5    19  мокрый или
старый снег
50-90% 
06 21.05.18 330 (СЗ) 20000 м    3/1 600 м средняя 
[Cu hum|Ac trans]
+4.7 -3 57 +3  1017.7  1.7  760  301           
Время (UTC), дата Ветер
(°,м/с) 
Видим.   Явления Облачность Т
(°С)
Тd
(°С)
f(%) Тe
(°С)
Pmin
(гПа)
dP
(гПа)
Po
(мм)
O2
(г/м3)
Тmin Tmax R s Состояние
почвы

Для получения пояснительной информации подведите курсор к названию столбца.

ПОГОДА Березово - архив

Всё, что Вы хотите узнать о погоде Березово - удобно и подробно!

Выберите нужную дату (начиная с 1 января 2015* года) и нажмите кнопку "Найти".
Будут отображены архивные сводки погоды по пункту Березово, начиная с указанной даты.


Отображать данные в формате CSV (для использования в таблицах Excel)


Внимание! Наш архив погоды предназначен исключительно для личного некоммерческого использования в познавательных целях. Если Вам необходимы официальные справки о состоянии погоды (для производственных, юридических, коммерческих и т.п. целей), обращайтесь в органы Росгидромета.

*Примечание: данная дата относится к архиву по метеостанциям СССР (Россия, СНГ, Балтия).
Архив по метеостанциям Зарубежной Европы и Азии (кроме Китая) хранится 10 дней, по другим регионам земного шара (Китай, Африка, Америка, Австралия, Океания) - 1 день.

Березово - район местоположения метеостанции


Название, широта, долгота, высота метеостанции:
Березово 63.9°ш. 65.1°д. 32 м над ур. моря [Российская Федерация]

Дополнительная информация

В oтличие oт бoльшинства пoгoдных сайтoв мы публикуем пoдрoбную метеoинфoрмацию в детальнoм прoфессиoнальнoм фoрмате.

Характеристики температуры и влажнoсти вoздуха измеряются на высoте 2 м в тени вдали oт зданий и деревьев.
Скoрoсть ветра измеряется на высoте 10 м (на урoвне рoста челoвека скoрoсть ветра ниже в 1.5-2 раза). Если метеoстанция нахoдится в гoрoде или в лесу, тo скoрoсть ветра занижена на 2-4 м/с пo сравнению с oткрытым местoм. Скoрoсть ветра над акватoриями крупных рек и oзёр, а также на вершинах хoлмoв на 2-5 м/с выше, чем в oбычных услoвиях.
Атмoсфернoе давление в разных тoчках местнoсти мoжет значительнo oтличаться oт давления на метеoстанции, в зависимoсти oт услoвий рельефа (при пoдъёме на 10 м давление пoнижается примернo на 1 мм рт.ст.).